Flag for Russia Weather past 2 weeks in Yuzhno-Sakhalinsk, Russia

Now
28 °F

Clear.


Feels Like: 28 °F
Forecast: 32 / 63 °F
Wind: 1 mph from North

Location: Yuzhno Airport-Sakhalinsk

Current Time: Apr 29, 2015 at 2:21:21 AM

Latest Report: Apr 29, 2015 at 2:00 AM


Visibility: N/A

Pressure: 30.04 "Hg

Humidity: 100%

Dew point: 28 °F

Location of Yuzhno-SakhalinskLocation

Historic Weather in Yuzhno-Sakhalinsk — Graph

°F

Yuzhno-Sakhalinsk temperature yesterday

Maximum temperature yesterday: 57 °F (at 11:00 AM)
Minimum temperature yesterday: 34 °F (at 11:00 PM)
Average temperature yesterday: 47 °F

Past Weeks' High & Low Weather Summary

 TemperatureHumidityPressure
High61 °F (Apr 27, 1:30 PM)100% (Apr 15, 3:00 AM)30.12 "Hg (Apr 15, 3:00 AM)
Low27 °F (Apr 15, 3:00 AM)33% (Apr 25, 2:30 PM)29.42 "Hg (Apr 21, 6:00 AM)
Average40 °F76%29.82 "Hg
* Reported Apr 14 1:00 AM — Apr 29 1:00 AM, Yuzhno-Sakhalinsk, Weather by CustomWeather, © 2015

Note: Actual official high and low records may vary slightly from our data, if they occured in-between our weather recording intervals... More about our weather records

Advertising

Yuzhno-Sakhalinsk weather history for previous 24 hours

 ConditionsComfort  
Time TempWeatherWind HumidityBarometerVisibility
1:00 AM
Wed, Apr 29
32 °FClear.1 mph93%30.07 "HgN/A
12:00 AM30 °FClear.No wind100%30.09 "HgN/A
11:00 PM
Tue, Apr 28
34 °FClear.No wind87%30.09 "HgN/A
10:30 PM37 °FClear.1 mph81%30.09 "HgN/A
10:00 PM36 °FClear.No wind87%30.09 "HgN/A
9:30 PM37 °FClear.1 mph81%30.12 "HgN/A
9:00 PM37 °FClear.1 mph81%30.12 "HgN/A
8:30 PM39 °FClear.1 mph75%30.12 "HgN/A
8:00 PM43 °FClear.3 mph66%30.12 "HgN/A
7:30 PM45 °FClear.6 mph61%30.09 "HgN/A
7:00 PM48 °FClear.6 mph54%30.09 "HgN/A
6:30 PM48 °FClear.8 mph54%30.09 "HgN/A
6:00 PM48 °FClear.10 mph58%30.09 "HgN/A
5:30 PM50 °FClear.13 mph54%30.09 "HgN/A
5:00 PM52 °FClear.15 mph44%30.09 "HgN/A
4:30 PM52 °FClear.15 mph47%30.09 "HgN/A
4:00 PM52 °FClear.17 mph54%30.09 "HgN/A
3:30 PM54 °FClear.15 mph51%30.09 "HgN/A
3:00 PM54 °FClear.17 mph51%30.09 "HgN/A
2:30 PM55 °FClear.17 mph47%30.09 "HgN/A
1:30 PM57 °FClear.15 mph44%30.09 "HgN/A
1:00 PM55 °FClear.15 mph51%30.09 "HgN/A
12:30 PM57 °FClear.13 mph48%30.09 "HgN/A
12:00 PM57 °FClear.8 mph48%30.09 "HgN/A
11:30 AM57 °FClear.8 mph44%30.07 "HgN/A
11:00 AM57 °FClear.8 mph41%30.07 "HgN/A
10:30 AM55 °FClear.8 mph44%30.07 "HgN/A
10:00 AM54 °FClear.8 mph47%30.07 "HgN/A
9:30 AM54 °FClear.6 mph51%30.07 "HgN/A
9:00 AM50 °FClear.3 mph62%30.07 "HgN/A
8:30 AM48 °FClear.1 mph71%30.07 "HgN/A
8:00 AM46 °FClear.No wind82%30.07 "HgN/A
7:30 AM43 °FClear.No wind87%30.04 "HgN/A
7:00 AM43 °FClear.1 mph87%30.04 "HgN/A
6:30 AM41 °FClear.1 mph87%30.04 "HgN/A
6:00 AM39 °FClear.No wind93%30.04 "HgN/A
5:00 AM41 °FClear.1 mph87%30.01 "HgN/A
4:00 AM41 °FPassing clouds.No wind87%30.01 "HgN/A
3:00 AM41 °FSprinkles. Passing clouds.6 mph93%29.98 "HgN/A
2:00 AM41 °FClear.3 mph87%29.95 "HgN/A
Weather by CustomWeather, © 2015

See weather overviewHow to use our weather pages